QPF
0.00 0.00 0.00 0.00 0.00 0.00 0.00 0.00 0.00 0.00 0.00 0.00 0.00 0.00 0.00 0.00 0.00 0.00 0.00 0.00 0.00 0.00 0.00 0.00 0.00 0.00 0.00 0.00 0.00 0.00 0.00 0.00 0.00 0.00 0.00 0.00 0.00 0.00 0.00 0.00 0.00 0.00 0.00 0.00 0.00
0.00 0.00 0.00 0.00 0.00 0.00 0.00 0.00 0.00 0.00 0.00 0.00 0.00 0.00 0.00 0.00 0.00 0.00 0.00 0.00 0.00 0.00 0.00 0.00 0.00 0.00 0.00 0.00 0.00 0.00 0.00 0.00 0.00 0.00 0.00 0.00 0.00 0.00 0.00 0.00 0.00 0.00 0.00 0.00 0.00
0.00 0.00 0.00 0.00 0.00 0.00 0.00 0.00 0.00 0.00 0.00 0.00 0.00 0.00 0.00 0.00 0.00 0.00 0.00 0.00 0.00 0.00 0.00 0.00 0.00 0.00 0.00 0.00 0.00 0.00 0.00 0.00 0.00 0.00 0.00 0.00 0.00 0.00 0.00 0.00 0.00 0.00 0.00 0.00 0.00
0.00 0.00 0.00 0.00 0.00 0.00 0.00 0.00 0.00 0.00 0.00 0.00 0.00 0.00 0.00 0.00 0.00 0.00 0.00 0.00 0.00 0.00 0.00 0.00 0.00 0.00 0.00 0.00 0.00 0.00 0.00 0.00 0.00 0.00 0.00 0.00 0.00 0.00 0.00 0.00 0.00 0.00 0.00 0.00 0.00
0.00 0.00 0.00 0.00 0.00 0.00 0.00 0.00 0.00 0.00 0.00 0.00 0.00 0.00 0.00 0.00 0.00 0.00 0.00 0.00 0.00 0.00 0.00 0.00 0.00 0.00 0.00 0.00 0.00 0.00 0.00 0.00 0.00 0.00 0.00 0.00 0.00 0.00 0.00 0.00 0.00 0.00 0.00 0.00 0.00
0.00 0.00 0.00 0.00 0.00 0.00 0.00 0.00 0.00 0.00 0.00 0.00 0.00 0.00 0.00 0.00 0.00 0.00 0.00 0.00 0.00 0.00 0.00 0.00 0.00 0.00 0.00 0.00 0.00 0.00 0.00 0.00 0.00 0.00 0.00 0.00 0.00 0.00 0.00 0.00 0.00 0.00 0.00 0.00 0.00
0.01 0.01 0.00 0.00 0.00 0.00 0.00 0.00 0.00 0.00 0.00 0.00 0.00 0.00 0.00 0.00 0.00 0.00 0.00 0.00 0.00 0.00 0.00 0.00 0.00 0.00 0.00 0.00 0.00 0.00 0.00 0.00 0.00 0.00 0.00 0.00 0.00 0.00 0.00 0.00 0.00 0.00 0.00 0.00 0.00
0.00 0.00 0.00 0.00 0.00 0.00 0.00 0.00 0.00 0.00 0.00 0.00 0.00 0.00 0.00 0.00 0.00 0.00 0.00 0.00 0.00 0.00 0.00 0.00 0.00 0.00 0.00 0.00 0.00 0.00 0.00 0.00 0.00 0.00 0.00 0.00 0.00 0.00 0.00 0.00 0.00 0.00 0.00 0.00 0.00
0.00 0.00 0.00 0.00 0.00 0.00 0.00 0.00 0.00 0.00 0.00 0.00 0.00 0.00 0.00 0.00 0.00 0.00 0.00 0.00 0.00 0.00 0.00 0.00 0.00 0.00 0.00 0.00 0.00 0.00 0.00 0.00 0.00 0.00 0.00 0.00 0.00 0.00 0.00 0.00 0.00 0.00 0.00 0.00 0.00
0.00 0.00 0.00 0.00 0.00 0.00 0.00 0.00 0.00 0.00 0.00 0.00 0.00 0.00 0.00 0.00 0.00 0.00 0.00 0.00 0.00 0.00 0.00 0.00 0.00 0.00 0.00 0.00 0.00 0.00 0.00 0.00 0.00 0.00 0.00 0.00 0.00 0.00 0.00 0.00 0.00 0.00 0.00 0.00 0.00
0.00 0.00 0.00 0.00 0.00 0.00 0.00 0.00 0.00 0.00 0.00 0.00 0.00 0.00 0.00 0.00 0.00 0.00 0.00 0.00 0.00 0.00 0.00 0.00 0.00 0.00 0.00 0.00 0.00 0.00 0.00 0.00 0.00 0.00 0.00 0.00 0.00 0.00 0.00 0.00 0.00 0.00 0.00 0.00 0.00
0.00 0.00 0.00 0.00 0.00 0.00 0.00 0.00 0.00 0.00 0.00 0.00 0.00 0.00 0.00 0.00 0.00 0.00 0.00 0.00 0.00 0.00 0.00 0.00 0.00 0.00 0.00 0.00 0.00 0.00 0.00 0.00 0.00 0.00 0.00 0.00 0.00 0.00 0.00 0.00 0.00 0.00 0.00 0.00 0.00
0.00 0.00 0.00 0.00 0.00 0.00 0.00 0.00 0.00 0.00 0.00 0.00 0.00 0.00 0.00 0.00 0.00 0.00 0.00 0.00 0.00 0.00 0.00 0.00 0.00 0.00 0.00 0.00 0.00 0.00 0.00 0.00 0.00 0.00 0.00 0.00 0.00 0.00 0.00 0.00 0.00 0.00 0.00 0.00 0.00
0.00 0.00 0.00 0.00 0.00 0.00 0.00 0.00 0.00 0.00 0.00 0.00 0.00 0.00 0.00 0.00 0.00 0.00 0.00 0.00 0.00 0.00 0.00 0.00 0.00 0.00 0.00 0.00 0.00 0.00 0.00 0.00 0.00 0.00 0.00 0.00 0.00 0.00 0.00 0.00 0.00 0.00 0.00 0.00 0.00
0.00 0.00 0.00 0.00 0.00 0.00 0.00 0.00 0.00 0.00 0.00 0.00 0.00 0.00 0.00 0.00 0.00 0.00 0.00 0.00 0.00 0.00 0.00 0.00 0.00 0.00 0.00 0.00 0.00 0.00 0.00 0.00 0.00 0.00 0.00 0.00 0.00 0.00 0.00 0.00 0.00 0.00 0.00 0.00 0.00
0.00 0.00 0.00 0.00 0.00 0.00 0.00 0.00 0.00 0.00 0.00 0.00 0.00 0.00 0.00 0.00 0.00 0.00 0.00 0.00 0.00 0.00 0.00 0.00 0.00 0.00 0.00 0.00 0.00 0.00 0.00 0.00 0.00 0.00 0.00 0.00 0.00 0.00 0.00 0.00 0.00 0.00 0.00 0.00 0.00
0.00 0.00 0.00 0.00 0.00 0.00 0.00 0.00 0.00 0.00 0.00 0.00 0.00 0.00 0.00 0.00 0.00 0.00 0.00 0.00 0.00 0.00 0.00 0.00 0.00 0.00 0.00 0.00 0.00 0.00 0.00 0.00 0.00 0.00 0.00 0.00 0.00 0.00 0.00 0.00 0.00 0.00 0.00 0.00 0.00
0.00 0.00 0.00 0.00 0.00 0.00 0.00 0.00 0.00 0.00 0.00 0.00 0.00 0.00 0.00 0.00 0.00 0.00 0.00 0.00 0.00 0.00 0.00 0.00 0.00 0.00 0.00 0.00 0.00 0.00 0.00 0.00 0.00 0.00 0.00 0.00 0.00 0.00 0.00 0.00 0.00 0.00 0.00 0.00 0.00
0.00 0.00 0.00 0.00 0.00 0.00 0.00 0.00 0.00 0.00 0.00 0.00 0.00 0.00 0.00 0.00 0.00 0.00 0.00 0.00 0.00 0.00 0.00 0.00 0.00 0.00 0.00 0.00 0.00 0.00 0.00 0.00 0.00 0.00 0.00 0.00 0.00 0.00 0.00 0.00 0.00 0.00 0.00 0.00 0.00
0.00 0.00 0.00 0.00 0.00 0.01 0.01 0.00 0.00 0.00 0.00 0.00 0.00 0.00 0.00 0.00 0.00 0.00 0.00 0.00 0.00 0.00 0.00 0.00 0.00 0.00 0.00 0.00 0.00 0.00 0.00 0.00 0.00 0.00 0.00 0.00 0.00 0.00 0.00 0.00 0.00 0.00 0.00 0.00 0.00
0.00 0.00 0.00 0.00 0.01 0.01 0.00 0.00 0.00 0.00 0.00 0.00 0.00 0.00 0.00 0.00 0.00 0.00 0.00 0.00 0.00 0.00 0.00 0.00 0.00 0.00 0.00 0.00 0.00 0.00 0.00 0.00 0.00 0.00 0.00 0.00 0.00 0.00 0.00 0.00 0.00 0.00 0.00 0.00 0.00
0.00 0.00 0.00 0.01 0.01 0.00 0.00 0.00 0.00 0.00 0.00 0.00 0.00 0.00 0.00 0.00 0.00 0.00 0.00 0.00 0.00 0.00 0.00 0.00 0.00 0.00 0.00 0.00 0.00 0.00 0.00 0.00 0.00 0.00 0.00 0.00 0.00 0.00 0.00 0.00 0.00 0.00 0.00 0.00 0.00
0.00 0.00 0.00 0.01 0.01 0.01 0.00 0.00 0.00 0.00 0.00 0.00 0.00 0.00 0.00 0.00 0.00 0.00 0.00 0.00 0.00 0.00 0.00 0.00 0.00 0.00 0.00 0.00 0.00 0.00 0.00 0.00 0.00 0.00 0.00 0.00 0.00 0.00 0.00 0.00 0.00 0.00 0.00 0.00 0.00
0.00 0.00 0.00 0.00 0.00 0.00 0.00 0.00 0.00 0.00 0.00 0.00 0.00 0.00 0.00 0.00 0.00 0.00 0.00 0.00 0.00 0.00 0.00 0.00 0.00 0.00 0.00 0.00 0.00 0.00 0.00 0.00 0.00 0.00 0.00 0.00 0.00 0.00 0.00 0.00 0.00 0.00 0.00 0.00 0.00
0.00 0.00 0.00 0.00 0.00 0.00 0.00 0.00 0.00 0.01 0.00 0.00 0.00 0.00 0.00 0.00 0.00 0.00 0.00 0.00 0.00 0.00 0.00 0.00 0.00 0.00 0.00 0.00 0.00 0.00 0.00 0.00 0.00 0.00 0.00 0.00 0.00 0.00 0.00 0.00 0.00 0.00 0.00 0.00 0.00
0.00 0.00 0.00 0.00 0.00 0.00 0.00 0.00 0.00 0.00 0.00 0.00 0.00 0.00 0.00 0.00 0.00 0.00 0.00 0.00 0.00 0.00 0.00 0.00 0.00 0.00 0.00 0.00 0.00 0.00 0.00 0.00 0.00 0.00 0.00 0.00 0.00 0.00 0.00 0.00 0.00 0.00 0.00 0.00 0.00
0.00 0.00 0.00 0.00 0.00 0.00 0.00 0.00 0.00 0.00 0.00 0.00 0.00 0.00 0.00 0.00 0.00 0.00 0.00 0.00 0.00 0.00 0.00 0.00 0.00 0.00 0.00 0.00 0.00 0.00 0.00 0.00 0.00 0.00 0.00 0.00 0.00 0.00 0.00 0.00 0.00 0.00 0.00 0.00 0.00
MSLP
1023.28 1022.97 1022.66 1022.41 1022.13 1021.66 1021.18 1020.66 1020.13 1019.81 1019.29 1018.88 1018.57 1018.26 1018.26 1017.68 1016.91 1016.50 1016.37 1016.46 1015.87 1015.40 1015.13 1014.39 1014.03 1013.94 1013.69 1013.76 1014.12 1013.74 1012.78 1012.90 1013.49 1013.90 1014.48 1015.22 1015.18 1015.25 1015.34 1014.82 1014.62 1014.28 1014.04 1013.94 1014.25
1023.53 1023.15 1022.89 1022.55 1022.13 1021.84 1021.48 1021.00 1020.53 1020.06 1019.40 1018.91 1018.33 1017.99 1017.74 1017.91 1017.11 1016.62 1017.03 1016.32 1015.82 1015.45 1015.01 1014.37 1013.93 1013.76 1013.54 1014.03 1014.14 1013.51 1013.19 1013.86 1014.59 1014.87 1015.05 1015.42 1015.59 1015.45 1015.16 1014.59 1014.31 1014.32 1014.17 1014.27 1014.25
1023.66 1023.30 1022.98 1022.63 1022.18 1021.82 1021.41 1021.05 1020.77 1020.23 1019.62 1019.21 1018.59 1017.91 1017.55 1017.29 1017.42 1016.50 1016.60 1016.29 1015.86 1015.59 1015.30 1014.90 1014.43 1013.94 1013.88 1014.36 1014.67 1014.34 1014.21 1014.92 1015.36 1015.71 1015.92 1015.76 1015.66 1015.78 1015.21 1014.21 1014.17 1014.16 1014.05 1014.10 1014.31
1023.88 1023.47 1022.94 1022.48 1022.02 1021.55 1021.09 1020.77 1020.47 1020.12 1019.87 1019.31 1018.81 1018.26 1017.47 1016.82 1017.54 1017.10 1016.63 1016.25 1016.05 1015.74 1015.20 1014.77 1014.35 1013.92 1014.22 1014.46 1015.21 1015.15 1015.60 1015.71 1016.06 1016.48 1016.38 1016.05 1015.97 1015.47 1015.09 1014.14 1014.50 1014.60 1014.55 1014.42 1014.10
1023.40 1023.21 1022.86 1022.51 1022.16 1021.63 1021.17 1020.68 1020.16 1019.77 1019.39 1019.23 1019.01 1018.42 1017.53 1016.76 1016.32 1016.79 1016.92 1016.46 1015.99 1015.85 1015.63 1015.01 1014.57 1014.56 1014.68 1015.05 1015.37 1015.33 1015.94 1016.24 1016.56 1016.74 1016.60 1016.55 1015.92 1015.47 1014.58 1014.27 1014.51 1014.55 1014.43 1014.13 1013.92
1023.17 1022.87 1022.74 1022.29 1022.00 1021.47 1020.89 1020.40 1019.86 1019.28 1019.01 1018.72 1018.83 1018.87 1017.81 1016.73 1016.65 1016.33 1016.67 1016.68 1016.38 1016.03 1016.01 1015.64 1015.46 1015.34 1015.43 1015.80 1015.78 1016.17 1016.28 1016.36 1016.67 1016.60 1016.46 1016.25 1015.52 1015.66 1014.03 1014.37 1014.12 1013.99 1013.78 1013.73 1013.78
1023.13 1022.79 1022.57 1022.29 1021.79 1021.45 1020.76 1020.17 1019.62 1019.10 1018.87 1018.70 1018.87 1018.73 1017.92 1017.21 1016.85 1016.61 1016.32 1016.83 1016.93 1016.48 1016.25 1016.45 1016.26 1015.85 1015.81 1016.15 1016.64 1016.34 1016.10 1016.22 1016.32 1016.38 1016.03 1015.99 1015.09 1014.35 1013.74 1014.25 1013.87 1013.44 1013.34 1013.41 1013.47
1023.56 1023.39 1022.66 1021.90 1021.57 1021.21 1020.69 1020.08 1019.36 1019.09 1018.89 1018.72 1018.72 1018.82 1017.64 1017.53 1017.24 1017.09 1016.44 1016.61 1016.92 1016.79 1016.68 1016.75 1016.55 1016.28 1016.17 1016.76 1016.49 1015.90 1015.67 1015.45 1016.01 1016.19 1016.01 1015.73 1013.48 1013.20 1013.80 1013.83 1013.19 1013.01 1013.01 1013.14 1013.24
1023.33 1022.80 1022.37 1022.34 1021.54 1020.89 1020.07 1019.65 1019.23 1018.99 1018.94 1018.45 1018.32 1018.27 1017.61 1017.77 1017.71 1017.41 1017.12 1016.46 1016.73 1016.94 1016.86 1016.76 1016.49 1016.42 1016.57 1015.91 1015.87 1015.47 1015.00 1015.30 1015.64 1016.41 1016.04 1015.39 1013.27 1013.35 1013.55 1013.30 1012.89 1012.59 1012.70 1012.85 1013.10
1023.36 1022.88 1022.61 1022.14 1021.70 1020.92 1020.09 1019.56 1019.17 1018.70 1018.58 1018.66 1018.45 1018.29 1017.90 1017.87 1018.03 1017.74 1017.65 1016.89 1016.45 1016.73 1016.74 1016.52 1016.35 1016.10 1016.01 1015.68 1015.11 1014.86 1015.00 1015.58 1015.75 1016.27 1016.18 1015.21 1013.29 1012.60 1012.74 1012.77 1012.45 1012.28 1012.47 1012.64 1012.80
1023.27 1023.06 1022.75 1022.40 1021.74 1021.38 1020.30 1019.13 1018.97 1018.96 1018.56 1018.44 1018.19 1017.98 1017.72 1017.76 1017.96 1017.88 1017.85 1017.38 1016.49 1016.30 1016.21 1016.67 1016.22 1015.61 1015.38 1015.73 1015.54 1015.44 1015.49 1015.61 1016.02 1016.76 1016.42 1015.17 1013.78 1012.30 1012.12 1012.26 1012.04 1011.93 1012.22 1012.52 1012.69
1023.31 1022.99 1022.89 1022.45 1022.03 1021.25 1020.75 1020.36 1021.41 1021.78 1019.79 1018.78 1018.42 1018.18 1017.94 1017.97 1017.71 1017.90 1018.05 1017.61 1016.54 1015.92 1016.36 1016.61 1016.09 1016.17 1016.30 1016.33 1016.14 1016.03 1015.94 1015.93 1016.33 1017.01 1016.82 1015.26 1013.57 1012.37 1012.32 1012.12 1012.07 1012.01 1012.12 1012.46 1012.71
1023.13 1022.97 1022.63 1022.26 1021.89 1021.48 1021.21 1021.58 1021.47 1021.65 1020.44 1018.82 1018.82 1018.22 1017.87 1018.16 1017.73 1017.87 1017.91 1017.54 1016.89 1016.27 1015.99 1015.90 1016.53 1016.82 1016.69 1016.78 1016.60 1016.49 1016.34 1016.62 1017.14 1017.17 1017.08 1016.04 1013.28 1012.33 1012.32 1012.28 1012.23 1012.23 1012.40 1012.56 1012.59
1022.84 1022.73 1022.55 1022.23 1022.06 1021.72 1021.42 1021.47 1021.66 1021.60 1020.64 1019.07 1018.60 1018.57 1017.95 1018.02 1018.17 1018.11 1017.98 1017.87 1017.33 1016.69 1016.42 1016.43 1017.03 1017.06 1017.14 1017.01 1017.02 1017.03 1017.21 1017.57 1017.82 1017.72 1017.09 1016.57 1013.80 1012.08 1012.11 1011.97 1011.92 1012.10 1012.23 1012.30 1012.48
1022.56 1022.38 1022.19 1022.14 1022.16 1021.57 1021.91 1021.61 1021.45 1021.10 1020.35 1019.11 1018.35 1018.44 1018.10 1018.20 1018.37 1018.27 1018.31 1017.73 1017.35 1017.07 1017.10 1016.71 1016.97 1017.18 1017.36 1017.16 1017.34 1017.53 1017.99 1018.26 1018.38 1018.35 1018.16 1016.70 1015.41 1011.95 1012.02 1011.64 1011.93 1012.17 1012.35 1012.35 1012.40
1022.45 1021.86 1021.68 1021.87 1021.99 1021.85 1021.77 1021.47 1021.24 1020.82 1019.25 1018.32 1018.09 1018.03 1018.12 1018.32 1018.25 1018.24 1018.30 1017.96 1018.00 1017.49 1017.31 1017.29 1017.64 1017.45 1017.35 1017.69 1017.73 1018.06 1018.31 1018.56 1018.90 1018.44 1017.70 1016.22 1015.21 1012.13 1011.47 1011.41 1011.80 1012.19 1012.11 1012.28 1012.39
1022.29 1022.17 1021.77 1021.37 1021.36 1021.66 1021.66 1021.13 1020.57 1020.02 1018.42 1018.12 1017.79 1017.86 1018.05 1018.14 1018.17 1018.17 1018.04 1017.74 1017.47 1017.34 1017.15 1017.52 1017.59 1017.70 1017.66 1017.54 1017.99 1017.93 1017.80 1017.81 1017.99 1017.58 1016.61 1016.29 1015.15 1012.06 1011.75 1011.83 1012.04 1012.36 1012.28 1012.32 1012.40
1022.14 1021.90 1021.85 1021.93 1021.87 1022.02 1021.80 1020.93 1020.28 1018.99 1018.51 1018.01 1017.51 1017.50 1017.72 1017.90 1017.96 1017.90 1017.68 1017.33 1017.37 1016.81 1016.61 1016.77 1017.70 1017.53 1017.47 1017.19 1016.96 1017.44 1017.43 1017.28 1017.20 1016.83 1016.13 1016.44 1014.21 1011.96 1012.31 1012.47 1012.37 1012.66 1012.81 1012.54 1012.17
1021.95 1022.13 1021.83 1021.64 1021.65 1021.78 1021.91 1020.79 1019.29 1018.79 1018.67 1018.19 1017.50 1017.09 1017.28 1017.71 1017.77 1017.64 1017.44 1017.22 1016.77 1016.66 1016.32 1016.24 1017.02 1017.48 1017.52 1017.27 1017.51 1017.73 1017.56 1017.80 1017.47 1017.55 1016.66 1014.59 1013.78 1012.37 1012.20 1012.51 1012.52 1012.44 1012.38 1011.89 1011.69
1021.73 1022.30 1022.41 1022.29 1021.97 1021.93 1021.96 1020.79 1019.64 1018.99 1018.69 1017.98 1017.54 1017.45 1017.25 1017.55 1017.46 1017.55 1017.35 1017.16 1016.86 1016.85 1016.58 1016.18 1016.76 1017.45 1017.62 1017.59 1017.81 1017.59 1017.70 1017.88 1017.65 1017.13 1015.85 1014.11 1013.60 1012.20 1012.20 1012.25 1012.40 1012.23 1011.74 1011.51 1011.34
1021.75 1021.63 1022.62 1022.06 1021.89 1022.13 1021.71 1021.16 1020.19 1019.03 1019.17 1018.48 1017.87 1017.48 1017.72 1017.69 1017.70 1017.63 1017.42 1017.33 1017.17 1017.11 1016.83 1016.47 1016.28 1017.68 1017.73 1017.30 1016.95 1017.89 1017.65 1017.85 1017.72 1017.43 1016.59 1014.70 1012.80 1012.36 1012.56 1012.65 1012.46 1012.09 1011.95 1011.66 1011.49
1021.55 1021.89 1022.20 1022.44 1022.25 1022.11 1021.98 1021.71 1021.18 1019.73 1019.45 1019.01 1018.43 1017.99 1018.04 1018.09 1018.06 1017.87 1017.76 1017.75 1017.71 1017.49 1017.03 1017.08 1016.84 1016.81 1016.90 1017.23 1017.36 1017.20 1016.94 1016.95 1016.88 1017.15 1016.93 1015.93 1012.90 1012.36 1012.61 1012.32 1012.27 1012.07 1011.74 1011.76 1011.61
1021.73 1022.29 1022.06 1021.97 1022.46 1022.55 1022.60 1022.27 1021.86 1020.96 1020.43 1020.05 1019.22 1019.10 1018.85 1018.48 1018.65 1018.44 1018.34 1018.35 1018.18 1017.95 1017.86 1017.61 1017.50 1017.15 1017.10 1017.47 1017.46 1017.13 1017.08 1016.85 1016.90 1016.96 1015.76 1015.07 1012.34 1012.39 1011.97 1012.16 1012.07 1011.86 1011.82 1011.73 1011.54
1021.88 1022.43 1022.30 1022.46 1023.12 1023.11 1022.85 1022.52 1021.99 1021.63 1021.33 1021.18 1020.40 1020.08 1020.04 1019.31 1018.94 1019.06 1018.92 1018.87 1018.83 1018.66 1018.48 1018.34 1017.85 1017.14 1016.56 1016.64 1016.77 1016.93 1016.91 1016.83 1016.57 1015.94 1014.74 1013.78 1012.14 1012.27 1012.37 1012.29 1012.11 1011.86 1011.73 1011.89 1011.62
1022.26 1022.70 1022.80 1022.92 1022.91 1022.98 1023.44 1022.96 1022.10 1021.77 1021.96 1021.88 1021.22 1020.58 1020.33 1020.22 1019.78 1019.67 1019.69 1019.58 1019.46 1019.32 1019.06 1018.87 1018.14 1017.93 1017.49 1017.32 1017.26 1016.92 1016.60 1016.11 1015.84 1015.41 1014.91 1013.44 1012.92 1012.82 1012.88 1012.64 1012.52 1012.33 1012.12 1012.13 1011.72
1022.77 1022.63 1023.35 1023.38 1023.61 1023.33 1023.19 1022.99 1022.52 1021.99 1022.49 1022.25 1021.83 1021.33 1021.11 1020.73 1020.59 1020.39 1020.43 1020.25 1019.92 1019.80 1019.57 1019.62 1018.88 1018.74 1018.14 1017.58 1017.20 1016.65 1016.12 1015.42 1014.91 1014.72 1014.44 1013.92 1013.06 1013.04 1013.14 1012.96 1012.57 1012.16 1012.16 1012.15 1011.81
1023.45 1023.26 1023.17 1023.68 1023.81 1023.87 1023.31 1023.09 1023.38 1022.69 1022.77 1023.00 1022.68 1022.05 1021.67 1021.61 1021.40 1021.22 1021.14 1020.89 1020.54 1020.39 1020.11 1019.90 1019.56 1019.29 1017.95 1017.88 1017.37 1016.05 1014.64 1014.22 1013.80 1014.11 1013.96 1013.43 1012.94 1013.22 1012.99 1012.64 1012.51 1012.18 1012.13 1012.19 1011.95
Thickness
5629 5630 5632 5632 5633 5635 5636 5639 5642 5643 5646 5647 5647 5648 5648 5652 5656 5659 5657 5658 5663 5666 5669 5674 5677 5676 5677 5672 5667 5667 5669 5659 5654 5651 5651 5649 5649 5652 5651 5653 5656 5661 5663 5668 5668
5625 5627 5627 5627 5630 5631 5633 5635 5636 5638 5642 5644 5648 5649 5648 5647 5653 5654 5650 5655 5659 5663 5667 5670 5673 5673 5671 5664 5662 5666 5666 5653 5650 5648 5647 5645 5642 5645 5646 5651 5653 5654 5659 5661 5662
5622 5622 5622 5623 5625 5627 5628 5629 5631 5633 5636 5638 5641 5646 5648 5648 5647 5653 5650 5652 5655 5659 5661 5663 5666 5668 5664 5658 5652 5655 5655 5647 5643 5642 5640 5641 5641 5639 5641 5649 5651 5650 5654 5656 5654
5617 5617 5620 5621 5623 5625 5626 5627 5626 5628 5629 5631 5636 5638 5643 5649 5644 5642 5646 5649 5650 5653 5658 5660 5663 5664 5658 5656 5646 5649 5640 5640 5637 5633 5634 5637 5637 5639 5640 5650 5648 5646 5647 5647 5650
5618 5617 5617 5616 5617 5619 5619 5621 5624 5625 5627 5627 5627 5632 5638 5644 5648 5640 5638 5642 5647 5648 5648 5654 5657 5655 5654 5648 5644 5647 5637 5634 5632 5629 5629 5628 5633 5635 5641 5648 5645 5643 5643 5646 5647
5616 5614 5612 5613 5612 5613 5616 5617 5620 5623 5624 5625 5623 5621 5632 5641 5638 5641 5637 5636 5639 5642 5641 5645 5645 5644 5641 5637 5640 5633 5631 5631 5628 5629 5628 5625 5634 5626 5647 5640 5642 5643 5643 5643 5641
5609 5608 5607 5605 5606 5604 5608 5610 5613 5616 5616 5616 5613 5615 5623 5633 5629 5632 5635 5630 5629 5633 5635 5633 5634 5639 5638 5631 5625 5626 5631 5628 5628 5627 5629 5624 5629 5631 5645 5636 5638 5641 5641 5639 5638
5595 5592 5598 5602 5600 5596 5597 5600 5604 5606 5607 5608 5606 5605 5618 5616 5619 5622 5629 5628 5624 5625 5627 5626 5628 5628 5630 5621 5624 5628 5631 5636 5626 5624 5625 5625 5648 5643 5638 5634 5638 5639 5637 5634 5633
5591 5594 5593 5584 5589 5591 5593 5591 5593 5593 5594 5600 5603 5602 5609 5606 5608 5612 5616 5622 5621 5618 5620 5621 5623 5622 5620 5627 5623 5627 5631 5627 5627 5614 5618 5622 5641 5632 5632 5632 5632 5635 5633 5629 5626
5583 5585 5579 5580 5578 5580 5580 5580 5580 5583 5586 5586 5588 5595 5596 5598 5596 5601 5603 5612 5617 5613 5614 5616 5617 5622 5619 5622 5623 5627 5625 5614 5616 5614 5609 5615 5631 5638 5635 5628 5628 5631 5627 5623 5620
5575 5572 5570 5566 5566 5561 5566 5572 5576 5574 5573 5582 5583 5584 5587 5590 5590 5592 5594 5600 5610 5612 5614 5604 5613 5617 5625 5614 5614 5612 5611 5611 5609 5599 5602 5611 5616 5632 5633 5625 5625 5627 5621 5615 5612
5567 5564 5558 5555 5553 5554 5551 5554 5539 5533 5554 5558 5564 5569 5575 5579 5585 5584 5585 5591 5602 5611 5600 5602 5609 5605 5601 5600 5602 5603 5603 5607 5604 5591 5592 5606 5614 5627 5620 5620 5619 5618 5613 5607 5602
5557 5553 5552 5549 5545 5543 5542 5534 5529 5525 5541 5553 5549 5560 5568 5569 5576 5577 5579 5583 5591 5597 5600 5606 5596 5590 5592 5589 5594 5595 5599 5596 5591 5588 5582 5586 5622 5618 5614 5609 5607 5606 5602 5597 5594
5552 5547 5542 5539 5538 5533 5533 5527 5523 5522 5532 5542 5545 5544 5555 5559 5563 5566 5570 5574 5578 5589 5589 5592 5581 5583 5583 5584 5587 5584 5584 5580 5576 5578 5587 5577 5599 5621 5606 5604 5601 5597 5594 5592 5587
5546 5542 5538 5530 5527 5528 5520 5519 5519 5520 5533 5533 5537 5535 5542 5549 5551 5557 5557 5565 5572 5574 5576 5583 5574 5575 5574 5580 5576 5579 5569 5566 5563 5557 5542 5568 5567 5619 5595 5597 5592 5588 5583 5582 5579
5537 5538 5533 5525 5519 5515 5512 5513 5513 5522 5527 5524 5531 5533 5536 5537 5543 5545 5549 5553 5554 5560 5563 5564 5561 5567 5572 5564 5566 5560 5560 5555 5538 5547 5564 5564 5568 5605 5600 5594 5585 5580 5580 5575 5571
5529 5525 5523 5521 5519 5509 5506 5511 5516 5513 5527 5527 5528 5527 5529 5531 5533 5536 5540 5546 5554 5552 5558 5553 5555 5555 5558 5562 5556 5557 5561 5565 5565 5563 5579 5550 5556 5595 5590 5583 5575 5569 5569 5567 5563
5520 5517 5513 5507 5503 5498 5498 5510 5499 5515 5514 5518 5522 5522 5523 5524 5525 5527 5533 5542 5539 5547 5551 5554 5544 5547 5552 5558 5566 5557 5559 5561 5555 5565 5572 5536 5559 5588 5574 5565 5565 5559 5556 5558 5556
5513 5506 5505 5502 5498 5493 5490 5494 5509 5507 5505 5506 5514 5518 5519 5516 5518 5521 5528 5533 5540 5540 5551 5551 5544 5539 5541 5546 5548 5544 5549 5541 5538 5527 5534 5563 5561 5574 5565 5558 5559 5556 5554 5555 5553
5506 5496 5492 5488 5486 5485 5482 5490 5497 5499 5498 5501 5503 5507 5511 5509 5513 5515 5521 5525 5531 5530 5535 5545 5539 5532 5532 5535 5534 5539 5536 5533 5533 5530 5537 5559 5549 5565 5559 5554 5547 5548 5553 5554 5550
5495 5494 5481 5483 5479 5477 5475 5481 5487 5496 5488 5490 5493 5498 5499 5501 5504 5508 5514 5518 5520 5522 5527 5533 5540 5523 5523 5529 5537 5524 5528 5521 5523 5521 5526 5535 5560 5552 5547 5541 5538 5545 5544 5543 5540
5488 5485 5477 5469 5471 5473 5463 5462 5468 5484 5481 5481 5485 5489 5490 5493 5496 5501 5504 5505 5506 5511 5519 5518 5523 5523 5527 5518 5518 5523 5529 5531 5523 5513 5503 5503 5533 5549 5539 5539 5539 5538 5539 5535 5530
5478 5470 5468 5467 5467 5463 5455 5455 5455 5458 5465 5465 5473 5469 5477 5484 5480 5488 5490 5492 5495 5499 5501 5506 5506 5510 5513 5513 5509 5514 5514 5517 5513 5505 5513 5511 5540 5537 5542 5534 5536 5534 5531 5528 5524
5469 5464 5457 5455 5445 5447 5446 5446 5449 5452 5446 5444 5450 5453 5446 5465 5474 5468 5475 5476 5477 5481 5483 5489 5495 5507 5520 5512 5511 5506 5504 5503 5506 5506 5517 5516 5533 5534 5526 5526 5528 5529 5527 5519 5518
5454 5449 5446 5447 5442 5439 5432 5434 5442 5444 5439 5435 5437 5446 5446 5445 5449 5450 5457 5460 5462 5463 5468 5476 5486 5487 5496 5494 5490 5495 5497 5506 5500 5504 5496 5517 5516 5518 5515 5518 5517 5516 5516 5509 5510
5441 5443 5433 5430 5427 5429 5431 5431 5432 5435 5425 5432 5431 5431 5431 5437 5438 5438 5435 5441 5448 5452 5453 5453 5463 5463 5464 5484 5485 5481 5493 5500 5499 5498 5494 5500 5506 5511 5511 5510 5511 5513 5509 5502 5503
5423 5425 5426 5420 5416 5414 5423 5421 5414 5418 5415 5409 5412 5420 5427 5423 5421 5421 5419 5424 5431 5433 5440 5445 5448 5443 5467 5464 5464 5467 5498 5496 5501 5495 5495 5495 5507 5504 5505 5506 5505 5507 5504 5497 5496